QPF
0.03 0.02 0.03 0.03 0.04 0.04 0.03 0.03 0.03 0.02 0.03 0.04 0.04 0.04 0.04 0.04 0.05 0.06 0.07 0.07 0.04 0.03 0.03 0.04 0.04 0.03 0.06 0.05 0.04 0.04 0.05 0.05 0.07 0.08 0.08 0.08 0.09 0.10 0.08 0.07 0.05 0.03 0.03
0.02 0.03 0.03 0.03 0.03 0.03 0.02 0.03 0.04 0.03 0.04 0.04 0.05 0.05 0.05 0.05 0.05 0.05 0.06 0.05 0.04 0.03 0.03 0.03 0.04 0.03 0.04 0.04 0.03 0.04 0.05 0.05 0.07 0.09 0.09 0.09 0.11 0.13 0.07 0.07 0.06 0.03 0.04
0.04 0.03 0.02 0.02 0.02 0.03 0.01 0.01 0.03 0.03 0.03 0.02 0.03 0.04 0.04 0.04 0.05 0.06 0.06 0.04 0.04 0.02 0.02 0.01 0.02 0.02 0.02 0.03 0.03 0.04 0.06 0.06 0.08 0.12 0.11 0.09 0.10 0.11 0.08 0.08 0.09 0.07 0.05
0.01 0.01 0.01 0.02 0.01 0.02 0.01 0.01 0.01 0.02 0.02 0.02 0.02 0.01 0.01 0.02 0.02 0.03 0.05 0.05 0.04 0.02 0.01 0.01 0.02 0.03 0.03 0.03 0.02 0.04 0.06 0.07 0.08 0.11 0.11 0.09 0.10 0.10 0.07 0.07 0.08 0.09 0.08
0.01 0.00 0.01 0.02 0.02 0.01 0.01 0.01 0.01 0.02 0.03 0.03 0.02 0.01 0.01 0.01 0.02 0.02 0.03 0.04 0.03 0.02 0.02 0.02 0.02 0.02 0.02 0.03 0.03 0.03 0.05 0.07 0.10 0.11 0.10 0.12 0.12 0.08 0.07 0.07 0.11 0.14 0.15
0.01 0.01 0.01 0.02 0.03 0.02 0.02 0.02 0.03 0.03 0.03 0.02 0.02 0.02 0.03 0.03 0.03 0.03 0.03 0.03 0.03 0.03 0.02 0.02 0.02 0.02 0.02 0.02 0.03 0.04 0.04 0.06 0.08 0.07 0.09 0.14 0.12 0.06 0.07 0.08 0.08 0.09 0.12
0.01 0.01 0.01 0.02 0.03 0.03 0.02 0.03 0.04 0.05 0.04 0.02 0.02 0.03 0.04 0.03 0.03 0.04 0.03 0.03 0.03 0.03 0.03 0.02 0.02 0.02 0.01 0.00 0.01 0.02 0.04 0.06 0.06 0.05 0.07 0.09 0.07 0.06 0.07 0.09 0.09 0.08 0.09
0.01 0.01 0.01 0.02 0.03 0.04 0.04 0.05 0.05 0.05 0.05 0.04 0.02 0.02 0.03 0.04 0.04 0.04 0.03 0.02 0.02 0.02 0.02 0.02 0.02 0.03 0.01 0.01 0.01 0.01 0.02 0.04 0.04 0.05 0.07 0.10 0.10 0.08 0.09 0.09 0.10 0.09 0.08
0.02 0.01 0.01 0.01 0.02 0.03 0.03 0.04 0.04 0.03 0.05 0.04 0.03 0.02 0.02 0.01 0.02 0.03 0.05 0.04 0.03 0.04 0.04 0.03 0.03 0.03 0.03 0.01 0.02 0.02 0.03 0.04 0.03 0.03 0.05 0.08 0.09 0.10 0.12 0.12 0.12 0.13 0.09
0.01 0.01 0.01 0.02 0.02 0.02 0.03 0.05 0.03 0.03 0.04 0.03 0.03 0.03 0.03 0.02 0.02 0.03 0.04 0.04 0.04 0.04 0.04 0.04 0.04 0.03 0.03 0.02 0.03 0.04 0.05 0.04 0.04 0.05 0.04 0.05 0.07 0.09 0.09 0.12 0.15 0.17 0.10
0.02 0.02 0.01 0.02 0.03 0.02 0.02 0.03 0.03 0.04 0.05 0.03 0.03 0.04 0.03 0.02 0.01 0.02 0.02 0.04 0.04 0.04 0.04 0.04 0.04 0.04 0.04 0.04 0.03 0.04 0.04 0.04 0.08 0.12 0.06 0.05 0.07 0.09 0.11 0.14 0.16 0.17 0.14
0.03 0.02 0.01 0.01 0.02 0.03 0.02 0.04 0.06 0.06 0.05 0.04 0.03 0.02 0.02 0.01 0.01 0.01 0.03 0.05 0.05 0.05 0.05 0.06 0.07 0.06 0.06 0.06 0.05 0.04 0.04 0.05 0.07 0.08 0.08 0.06 0.07 0.08 0.09 0.11 0.12 0.12 0.13
0.03 0.02 0.02 0.02 0.02 0.02 0.03 0.06 0.10 0.07 0.05 0.04 0.02 0.02 0.01 0.01 0.01 0.01 0.02 0.03 0.04 0.05 0.06 0.07 0.07 0.07 0.08 0.08 0.06 0.05 0.05 0.06 0.06 0.05 0.08 0.06 0.09 0.08 0.08 0.09 0.09 0.10 0.12
0.04 0.03 0.02 0.02 0.02 0.03 0.02 0.07 0.10 0.06 0.04 0.04 0.02 0.02 0.01 0.01 0.01 0.01 0.01 0.02 0.02 0.03 0.04 0.05 0.06 0.09 0.12 0.11 0.08 0.06 0.05 0.05 0.04 0.05 0.06 0.06 0.06 0.06 0.08 0.08 0.08 0.09 0.11
0.05 0.03 0.02 0.02 0.01 0.01 0.03 0.07 0.09 0.08 0.06 0.04 0.04 0.03 0.02 0.01 0.01 0.01 0.01 0.02 0.03 0.03 0.02 0.04 0.05 0.05 0.08 0.11 0.10 0.08 0.06 0.04 0.04 0.05 0.06 0.05 0.05 0.06 0.08 0.09 0.08 0.07 0.07
0.03 0.03 0.03 0.03 0.03 0.02 0.03 0.06 0.08 0.08 0.10 0.09 0.03 0.03 0.02 0.01 0.01 0.01 0.01 0.02 0.03 0.03 0.03 0.03 0.04 0.05 0.06 0.09 0.10 0.08 0.06 0.03 0.02 0.03 0.03 0.08 0.06 0.04 0.06 0.08 0.09 0.08 0.06
0.03 0.03 0.03 0.02 0.03 0.03 0.03 0.05 0.04 0.03 0.04 0.05 0.06 0.03 0.03 0.02 0.02 0.01 0.01 0.01 0.02 0.03 0.02 0.02 0.02 0.03 0.03 0.05 0.07 0.06 0.04 0.02 0.02 0.02 0.03 0.05 0.04 0.03 0.04 0.07 0.10 0.08 0.05
0.02 0.02 0.03 0.04 0.04 0.03 0.04 0.03 0.03 0.03 0.03 0.04 0.05 0.04 0.05 0.04 0.03 0.02 0.02 0.02 0.02 0.03 0.03 0.03 0.03 0.02 0.02 0.03 0.04 0.03 0.03 0.03 0.03 0.02 0.02 0.02 0.02 0.03 0.04 0.05 0.06 0.06 0.05
0.01 0.01 0.03 0.02 0.02 0.03 0.03 0.02 0.03 0.04 0.03 0.03 0.04 0.05 0.05 0.06 0.05 0.04 0.03 0.03 0.03 0.04 0.05 0.05 0.05 0.04 0.03 0.02 0.02 0.03 0.03 0.04 0.04 0.03 0.03 0.03 0.04 0.06 0.07 0.07 0.07 0.06 0.05
0.01 0.01 0.01 0.01 0.01 0.02 0.03 0.03 0.03 0.03 0.03 0.03 0.04 0.05 0.05 0.06 0.06 0.06 0.05 0.04 0.05 0.05 0.07 0.09 0.07 0.05 0.05 0.03 0.02 0.02 0.02 0.03 0.04 0.08 0.08 0.05 0.06 0.06 0.09 0.07 0.05 0.05 0.06
0.02 0.01 0.01 0.01 0.01 0.01 0.03 0.02 0.02 0.04 0.05 0.05 0.05 0.04 0.04 0.05 0.05 0.05 0.05 0.05 0.05 0.05 0.06 0.06 0.04 0.04 0.04 0.05 0.03 0.02 0.02 0.03 0.05 0.06 0.04 0.04 0.05 0.06 0.05 0.04 0.03 0.03 0.03
0.01 0.01 0.01 0.01 0.02 0.02 0.02 0.02 0.03 0.04 0.05 0.05 0.04 0.05 0.04 0.04 0.03 0.04 0.05 0.05 0.04 0.04 0.05 0.05 0.04 0.03 0.04 0.05 0.05 0.03 0.02 0.03 0.04 0.04 0.03 0.04 0.05 0.05 0.05 0.05 0.03 0.04 0.04
0.02 0.01 0.01 0.01 0.02 0.02 0.03 0.03 0.03 0.03 0.03 0.04 0.04 0.04 0.05 0.05 0.04 0.03 0.03 0.03 0.02 0.02 0.03 0.05 0.05 0.06 0.06 0.06 0.05 0.04 0.04 0.03 0.03 0.04 0.04 0.03 0.03 0.06 0.08 0.07 0.05 0.05 0.04
0.02 0.01 0.01 0.01 0.01 0.02 0.02 0.02 0.02 0.02 0.02 0.03 0.04 0.05 0.04 0.05 0.05 0.03 0.02 0.02 0.02 0.03 0.04 0.05 0.05 0.06 0.06 0.05 0.05 0.05 0.04 0.05 0.04 0.04 0.04 0.03 0.03 0.04 0.04 0.04 0.05 0.06 0.05
0.02 0.01 0.01 0.01 0.01 0.02 0.02 0.02 0.02 0.02 0.02 0.03 0.05 0.05 0.05 0.04 0.02 0.01 0.01 0.01 0.02 0.05 0.06 0.05 0.04 0.04 0.04 0.03 0.04 0.04 0.04 0.04 0.04 0.03 0.03 0.04 0.03 0.02 0.03 0.04 0.04 0.05 0.05
0.04 0.01 0.01 0.02 0.03 0.03 0.02 0.01 0.01 0.02 0.02 0.02 0.02 0.02 0.02 0.02 0.01 0.01 0.01 0.02 0.03 0.04 0.04 0.03 0.03 0.03 0.03 0.03 0.02 0.03 0.03 0.03 0.05 0.05 0.04 0.03 0.04 0.03 0.03 0.03 0.03 0.04 0.05
MSLP
1011.02 1010.39 1009.97 1009.80 1009.85 1010.04 1010.27 1010.44 1010.51 1010.46 1010.32 1010.19 1010.13 1010.21 1010.45 1010.83 1011.30 1011.77 1012.18 1012.49 1012.69 1012.81 1012.89 1012.99 1013.15 1013.39 1013.69 1014.02 1014.36 1014.66 1014.90 1015.10 1015.27 1015.42 1015.60 1015.79 1016.01 1016.22 1016.43 1016.59 1016.72 1016.80 1016.87
1010.79 1010.29 1009.98 1009.90 1010.00 1010.22 1010.46 1010.62 1010.68 1010.62 1010.49 1010.38 1010.36 1010.48 1010.75 1011.16 1011.63 1012.10 1012.51 1012.80 1012.99 1013.10 1013.19 1013.30 1013.47 1013.71 1014.01 1014.34 1014.66 1014.94 1015.18 1015.37 1015.53 1015.69 1015.86 1016.05 1016.26 1016.46 1016.63 1016.77 1016.86 1016.92 1016.96
1010.47 1010.11 1009.92 1009.93 1010.10 1010.35 1010.59 1010.75 1010.80 1010.75 1010.64 1010.56 1010.58 1010.73 1011.03 1011.45 1011.91 1012.37 1012.75 1013.03 1013.21 1013.33 1013.43 1013.56 1013.75 1014.00 1014.31 1014.63 1014.94 1015.22 1015.44 1015.63 1015.79 1015.96 1016.14 1016.33 1016.52 1016.71 1016.86 1016.96 1017.03 1017.07 1017.10
1010.09 1009.87 1009.81 1009.91 1010.14 1010.42 1010.67 1010.84 1010.89 1010.85 1010.76 1010.71 1010.76 1010.94 1011.25 1011.66 1012.10 1012.53 1012.89 1013.16 1013.34 1013.48 1013.61 1013.78 1014.00 1014.27 1014.59 1014.92 1015.22 1015.48 1015.71 1015.89 1016.07 1016.24 1016.43 1016.62 1016.81 1016.98 1017.11 1017.20 1017.25 1017.28 1017.32
1009.72 1009.64 1009.70 1009.90 1010.18 1010.48 1010.74 1010.89 1010.94 1010.90 1010.84 1010.81 1010.88 1011.07 1011.38 1011.78 1012.20 1012.60 1012.95 1013.22 1013.42 1013.60 1013.78 1013.99 1014.25 1014.56 1014.89 1015.21 1015.51 1015.76 1015.98 1016.17 1016.35 1016.54 1016.73 1016.93 1017.12 1017.27 1017.39 1017.47 1017.52 1017.55 1017.61
1009.45 1009.49 1009.66 1009.93 1010.25 1010.56 1010.80 1010.94 1010.97 1010.93 1010.88 1010.87 1010.95 1011.15 1011.46 1011.83 1012.24 1012.62 1012.96 1013.25 1013.49 1013.72 1013.96 1014.23 1014.54 1014.87 1015.21 1015.53 1015.81 1016.05 1016.26 1016.45 1016.64 1016.84 1017.04 1017.24 1017.43 1017.58 1017.68 1017.75 1017.80 1017.85 1017.92
1009.35 1009.48 1009.73 1010.04 1010.38 1010.67 1010.88 1010.99 1011.00 1010.95 1010.90 1010.91 1011.01 1011.21 1011.51 1011.88 1012.27 1012.65 1013.00 1013.31 1013.60 1013.89 1014.19 1014.52 1014.87 1015.22 1015.56 1015.86 1016.12 1016.35 1016.55 1016.73 1016.93 1017.13 1017.34 1017.55 1017.73 1017.86 1017.96 1018.02 1018.07 1018.13 1018.22
1009.42 1009.63 1009.92 1010.25 1010.57 1010.83 1011.00 1011.06 1011.04 1010.98 1010.94 1010.97 1011.08 1011.30 1011.61 1011.97 1012.36 1012.75 1013.12 1013.46 1013.80 1014.14 1014.49 1014.86 1015.23 1015.59 1015.92 1016.20 1016.43 1016.63 1016.81 1016.99 1017.19 1017.40 1017.61 1017.82 1017.99 1018.12 1018.20 1018.25 1018.29 1018.35 1018.44
1009.64 1009.89 1010.20 1010.53 1010.82 1011.03 1011.15 1011.17 1011.12 1011.06 1011.04 1011.09 1011.24 1011.49 1011.81 1012.18 1012.58 1012.97 1013.35 1013.72 1014.09 1014.46 1014.85 1015.24 1015.62 1015.96 1016.26 1016.51 1016.71 1016.88 1017.04 1017.21 1017.40 1017.62 1017.84 1018.04 1018.20 1018.31 1018.37 1018.40 1018.43 1018.47 1018.55
1009.93 1010.21 1010.53 1010.84 1011.09 1011.24 1011.31 1011.30 1011.25 1011.20 1011.22 1011.31 1011.51 1011.79 1012.14 1012.53 1012.92 1013.32 1013.70 1014.08 1014.45 1014.84 1015.23 1015.62 1015.98 1016.29 1016.55 1016.76 1016.92 1017.06 1017.21 1017.38 1017.57 1017.79 1018.00 1018.20 1018.35 1018.45 1018.49 1018.49 1018.49 1018.51 1018.57
1010.18 1010.48 1010.80 1011.09 1011.31 1011.43 1011.46 1011.44 1011.40 1011.40 1011.46 1011.63 1011.88 1012.22 1012.60 1013.00 1013.39 1013.78 1014.15 1014.51 1014.87 1015.24 1015.61 1015.96 1016.28 1016.56 1016.78 1016.94 1017.07 1017.19 1017.32 1017.48 1017.67 1017.89 1018.11 1018.31 1018.45 1018.53 1018.55 1018.53 1018.50 1018.49 1018.52
1010.30 1010.62 1010.95 1011.23 1011.43 1011.54 1011.57 1011.56 1011.57 1011.63 1011.77 1012.01 1012.34 1012.72 1013.13 1013.55 1013.94 1014.30 1014.64 1014.97 1015.29 1015.62 1015.94 1016.25 1016.52 1016.75 1016.92 1017.05 1017.15 1017.25 1017.37 1017.52 1017.72 1017.94 1018.16 1018.35 1018.49 1018.56 1018.57 1018.53 1018.48 1018.44 1018.44
1010.20 1010.57 1010.92 1011.22 1011.42 1011.54 1011.60 1011.65 1011.72 1011.86 1012.09 1012.42 1012.81 1013.25 1013.69 1014.11 1014.48 1014.82 1015.12 1015.40 1015.68 1015.95 1016.22 1016.47 1016.69 1016.87 1017.00 1017.09 1017.17 1017.26 1017.37 1017.53 1017.72 1017.93 1018.15 1018.33 1018.46 1018.53 1018.54 1018.50 1018.44 1018.39 1018.36
1009.88 1010.30 1010.70 1011.03 1011.27 1011.44 1011.56 1011.68 1011.84 1012.07 1012.39 1012.80 1013.26 1013.73 1014.19 1014.61 1014.97 1015.27 1015.53 1015.77 1016.00 1016.22 1016.44 1016.64 1016.81 1016.95 1017.05 1017.12 1017.18 1017.25 1017.36 1017.50 1017.68 1017.88 1018.08 1018.25 1018.37 1018.44 1018.45 1018.42 1018.36 1018.31 1018.28
1009.38 1009.86 1010.32 1010.71 1011.01 1011.25 1011.45 1011.66 1011.91 1012.24 1012.65 1013.12 1013.62 1014.12 1014.58 1014.99 1015.33 1015.61 1015.84 1016.05 1016.24 1016.43 1016.61 1016.78 1016.91 1017.02 1017.09 1017.15 1017.19 1017.26 1017.34 1017.47 1017.62 1017.78 1017.95 1018.09 1018.19 1018.25 1018.27 1018.26 1018.22 1018.19 1018.16
1008.79 1009.33 1009.85 1010.31 1010.69 1011.02 1011.31 1011.62 1011.96 1012.37 1012.84 1013.35 1013.87 1014.37 1014.83 1015.22 1015.54 1015.81 1016.03 1016.23 1016.42 1016.59 1016.76 1016.91 1017.03 1017.12 1017.18 1017.22 1017.25 1017.30 1017.36 1017.44 1017.55 1017.66 1017.77 1017.86 1017.93 1017.96 1017.98 1017.97 1017.96 1017.95 1017.93
1008.22 1008.81 1009.39 1009.92 1010.39 1010.80 1011.19 1011.58 1012.01 1012.48 1012.98 1013.51 1014.02 1014.50 1014.93 1015.30 1015.62 1015.88 1016.12 1016.34 1016.54 1016.73 1016.91 1017.06 1017.18 1017.26 1017.31 1017.34 1017.36 1017.39 1017.41 1017.45 1017.50 1017.54 1017.57 1017.58 1017.58 1017.57 1017.56 1017.54 1017.54 1017.55 1017.56
1007.78 1008.41 1009.03 1009.62 1010.15 1010.65 1011.12 1011.60 1012.08 1012.59 1013.11 1013.62 1014.10 1014.54 1014.94 1015.28 1015.59 1015.87 1016.13 1016.39 1016.63 1016.86 1017.06 1017.23 1017.36 1017.45 1017.49 1017.52 1017.53 1017.52 1017.52 1017.50 1017.47 1017.43 1017.36 1017.28 1017.19 1017.10 1017.03 1016.98 1016.97 1016.99 1017.01
1007.55 1008.18 1008.82 1009.44 1010.03 1010.59 1011.13 1011.67 1012.20 1012.73 1013.24 1013.71 1014.15 1014.53 1014.88 1015.20 1015.50 1015.80 1016.10 1016.40 1016.70 1016.98 1017.22 1017.41 1017.55 1017.65 1017.70 1017.71 1017.71 1017.69 1017.66 1017.60 1017.50 1017.37 1017.20 1017.00 1016.80 1016.61 1016.45 1016.35 1016.30 1016.30 1016.33
1007.55 1008.15 1008.78 1009.40 1010.02 1010.62 1011.22 1011.80 1012.37 1012.90 1013.39 1013.82 1014.19 1014.52 1014.81 1015.10 1015.39 1015.71 1016.05 1016.40 1016.75 1017.07 1017.35 1017.57 1017.72 1017.82 1017.88 1017.90 1017.90 1017.87 1017.82 1017.73 1017.58 1017.38 1017.11 1016.81 1016.48 1016.17 1015.91 1015.71 1015.59 1015.55 1015.57
1007.74 1008.29 1008.87 1009.47 1010.09 1010.72 1011.35 1011.97 1012.56 1013.09 1013.55 1013.93 1014.25 1014.51 1014.76 1015.01 1015.29 1015.62 1015.99 1016.39 1016.78 1017.14 1017.44 1017.68 1017.84 1017.94 1018.00 1018.03 1018.04 1018.03 1017.98 1017.89 1017.72 1017.47 1017.13 1016.73 1016.29 1015.86 1015.48 1015.17 1014.96 1014.86 1014.84
1008.07 1008.54 1009.05 1009.60 1010.20 1010.83 1011.48 1012.13 1012.73 1013.27 1013.71 1014.06 1014.32 1014.53 1014.72 1014.94 1015.20 1015.54 1015.93 1016.35 1016.77 1017.15 1017.47 1017.71 1017.87 1017.98 1018.04 1018.08 1018.12 1018.13 1018.12 1018.05 1017.89 1017.63 1017.26 1016.80 1016.27 1015.73 1015.23 1014.81 1014.50 1014.31 1014.24
1008.46 1008.83 1009.25 1009.74 1010.30 1010.92 1011.58 1012.24 1012.86 1013.40 1013.83 1014.15 1014.38 1014.54 1014.70 1014.88 1015.13 1015.45 1015.85 1016.28 1016.71 1017.10 1017.42 1017.65 1017.81 1017.91 1017.98 1018.04 1018.10 1018.16 1018.20 1018.18 1018.07 1017.84 1017.47 1016.99 1016.41 1015.80 1015.20 1014.68 1014.27 1013.99 1013.84
1008.84 1009.11 1009.43 1009.84 1010.35 1010.94 1011.60 1012.27 1012.91 1013.46 1013.89 1014.20 1014.40 1014.54 1014.66 1014.82 1015.05 1015.37 1015.76 1016.19 1016.61 1017.00 1017.31 1017.53 1017.68 1017.77 1017.83 1017.91 1018.00 1018.11 1018.20 1018.25 1018.21 1018.03 1017.71 1017.25 1016.67 1016.02 1015.37 1014.76 1014.26 1013.90 1013.67
1009.17 1009.35 1009.58 1009.90 1010.35 1010.90 1011.54 1012.21 1012.86 1013.42 1013.86 1014.17 1014.36 1014.49 1014.60 1014.74 1014.96 1015.27 1015.65 1016.07 1016.49 1016.86 1017.15 1017.36 1017.49 1017.57 1017.63 1017.71 1017.83 1017.97 1018.12 1018.23 1018.26 1018.16 1017.91 1017.51 1016.96 1016.33 1015.65 1015.01 1014.44 1014.00 1013.69
1009.44 1009.53 1009.68 1009.93 1010.31 1010.82 1011.43 1012.09 1012.73 1013.29 1013.74 1014.06 1014.26 1014.38 1014.49 1014.63 1014.85 1015.14 1015.52 1015.93 1016.35 1016.71 1016.99 1017.19 1017.30 1017.36 1017.41 1017.49 1017.61 1017.77 1017.95 1018.11 1018.21 1018.19 1018.02 1017.69 1017.21 1016.62 1015.97 1015.32 1014.72 1014.22 1013.85
Thickness
5792 5796 5796 5796 5796 5795 5795 5795 5795 5794 5794 5794 5793 5793 5792 5791 5790 5790 5788 5787 5787 5785 5784 5783 5782 5781 5780 5779 5777 5776 5774 5773 5771 5770 5769 5767 5766 5764 5763 5762 5761 5760 5759
5798 5798 5798 5797 5797 5796 5795 5795 5795 5794 5794 5794 5793 5792 5792 5791 5790 5789 5788 5787 5786 5786 5785 5784 5783 5781 5780 5778 5777 5775 5774 5773 5772 5770 5769 5767 5766 5764 5763 5762 5761 5759 5758
5800 5800 5799 5798 5797 5796 5796 5795 5795 5795 5794 5794 5793 5793 5792 5791 5790 5789 5789 5788 5787 5786 5785 5784 5783 5782 5780 5779 5777 5775 5774 5773 5772 5770 5768 5766 5765 5764 5763 5762 5760 5759 5758
5802 5801 5800 5799 5798 5797 5796 5795 5795 5795 5794 5794 5793 5793 5792 5791 5791 5790 5789 5788 5787 5786 5785 5784 5783 5782 5780 5779 5777 5776 5774 5773 5771 5770 5768 5766 5765 5764 5763 5761 5760 5759 5758
5803 5801 5801 5800 5799 5798 5797 5796 5795 5795 5794 5794 5793 5793 5793 5792 5791 5791 5790 5789 5788 5787 5786 5784 5783 5782 5780 5779 5777 5776 5774 5773 5771 5770 5768 5766 5765 5763 5762 5761 5760 5759 5758
5803 5802 5802 5800 5799 5799 5798 5797 5796 5795 5795 5794 5794 5793 5793 5793 5792 5791 5790 5789 5788 5787 5786 5785 5783 5782 5781 5779 5778 5776 5775 5773 5771 5770 5768 5766 5765 5764 5762 5761 5761 5760 5758
5803 5803 5802 5801 5800 5799 5798 5797 5797 5796 5795 5794 5794 5794 5794 5793 5792 5791 5790 5789 5788 5787 5786 5785 5784 5782 5780 5779 5778 5776 5775 5773 5772 5770 5769 5767 5766 5764 5763 5762 5761 5760 5758
5805 5804 5803 5802 5801 5800 5799 5798 5797 5796 5796 5795 5794 5794 5794 5793 5793 5792 5790 5789 5788 5787 5786 5785 5784 5782 5781 5779 5778 5776 5775 5773 5772 5770 5769 5767 5766 5765 5763 5762 5761 5760 5759
5806 5804 5803 5802 5802 5801 5799 5799 5798 5797 5796 5795 5795 5794 5794 5793 5792 5791 5791 5789 5788 5787 5786 5785 5784 5783 5781 5780 5778 5777 5775 5773 5772 5770 5769 5768 5767 5765 5764 5763 5762 5760 5759
5805 5804 5803 5803 5802 5801 5800 5799 5798 5797 5796 5796 5795 5794 5793 5793 5792 5791 5790 5789 5788 5787 5787 5786 5785 5783 5782 5781 5779 5778 5776 5774 5772 5771 5770 5769 5768 5767 5766 5764 5762 5761 5760
5803 5804 5803 5803 5802 5801 5800 5799 5798 5797 5796 5796 5795 5794 5793 5793 5792 5791 5790 5789 5788 5788 5787 5786 5785 5784 5783 5781 5780 5778 5776 5775 5773 5771 5770 5769 5769 5768 5767 5765 5764 5762 5760
5801 5803 5804 5803 5803 5802 5801 5800 5798 5797 5796 5795 5794 5793 5793 5792 5791 5790 5790 5789 5788 5788 5787 5787 5786 5784 5783 5782 5781 5779 5777 5776 5774 5771 5770 5770 5769 5768 5767 5765 5764 5762 5761
5806 5806 5806 5805 5804 5802 5801 5800 5798 5797 5796 5795 5794 5793 5792 5791 5790 5790 5789 5788 5788 5788 5787 5786 5785 5784 5783 5782 5781 5779 5778 5776 5774 5772 5771 5770 5769 5768 5767 5765 5764 5763 5761
5808 5807 5808 5808 5806 5804 5803 5801 5799 5797 5796 5795 5794 5793 5792 5790 5790 5789 5788 5787 5787 5787 5787 5786 5785 5784 5783 5782 5781 5780 5779 5777 5775 5773 5772 5771 5770 5769 5767 5766 5765 5763 5762
5810 5809 5809 5809 5807 5806 5804 5801 5799 5798 5797 5796 5795 5794 5792 5791 5789 5789 5788 5787 5787 5787 5786 5785 5785 5784 5782 5782 5781 5780 5779 5777 5776 5774 5773 5772 5770 5769 5768 5767 5765 5764 5762
5812 5811 5811 5810 5809 5807 5804 5802 5801 5799 5798 5797 5796 5795 5794 5792 5790 5789 5788 5787 5787 5786 5786 5785 5784 5783 5782 5781 5780 5779 5778 5777 5776 5775 5773 5772 5771 5769 5768 5767 5765 5764 5763
5814 5813 5811 5810 5809 5807 5805 5803 5802 5800 5798 5797 5796 5795 5794 5793 5791 5789 5788 5787 5787 5786 5785 5784 5784 5782 5781 5781 5780 5779 5778 5777 5776 5774 5773 5772 5770 5769 5768 5767 5765 5764 5763
5816 5813 5812 5812 5809 5808 5806 5804 5802 5801 5799 5798 5796 5795 5794 5793 5791 5789 5787 5786 5786 5785 5784 5783 5781 5779 5779 5778 5778 5778 5777 5776 5775 5774 5773 5771 5770 5769 5768 5766 5765 5764 5762
5817 5814 5812 5811 5809 5808 5806 5805 5802 5800 5798 5797 5796 5795 5794 5792 5791 5789 5787 5786 5785 5783 5782 5782 5780 5778 5776 5775 5776 5776 5776 5774 5774 5774 5772 5771 5770 5768 5766 5765 5764 5763 5761
5818 5815 5812 5810 5809 5808 5805 5803 5800 5798 5797 5796 5795 5794 5793 5791 5790 5788 5786 5784 5783 5781 5780 5779 5777 5776 5775 5774 5774 5774 5773 5773 5773 5771 5770 5769 5768 5766 5765 5763 5762 5761 5760
5816 5813 5810 5808 5807 5806 5802 5799 5796 5794 5794 5794 5794 5793 5792 5790 5788 5786 5785 5782 5781 5779 5778 5777 5775 5772 5771 5772 5768 5765 5768 5770 5769 5769 5768 5767 5765 5765 5763 5762 5760 5759 5758
5815 5812 5810 5808 5806 5805 5802 5800 5797 5795 5794 5794 5793 5791 5790 5789 5787 5786 5783 5780 5779 5777 5776 5774 5772 5769 5768 5769 5763 5757 5754 5757 5762 5766 5765 5763 5763 5762 5760 5759 5757 5756 5754
5813 5812 5812 5808 5806 5804 5803 5800 5797 5793 5791 5790 5788 5788 5788 5787 5785 5784 5782 5780 5778 5776 5773 5772 5770 5767 5763 5764 5764 5757 5749 5746 5751 5757 5759 5759 5759 5758 5756 5756 5754 5752 5751
5816 5815 5812 5809 5806 5803 5801 5798 5793 5788 5784 5785 5786 5786 5786 5785 5784 5782 5780 5778 5776 5774 5771 5770 5769 5767 5763 5759 5760 5759 5757 5754 5746 5745 5751 5754 5754 5753 5753 5752 5751 5749 5748
5817 5814 5811 5807 5804 5801 5799 5796 5792 5788 5786 5786 5785 5783 5782 5782 5781 5780 5778 5776 5773 5772 5770 5768 5767 5765 5763 5759 5756 5755 5753 5751 5749 5742 5739 5743 5746 5748 5748 5747 5746 5745 5744
5815 5812 5808 5804 5800 5798 5797 5794 5791 5787 5785 5782 5781 5779 5778 5777 5777 5776 5775 5773 5771 5769 5768 5766 5765 5763 5761 5759 5756 5753 5749 5746 5743 5740 5736 5735 5736 5740 5742 5742 5740 5739 5738